Location: Mount Kobau Star Party
(49.1167°N, 119.7333°W)
Time: 11:23:35
(UTC-07:00)

BlueWalker 3 - Pass Details

Date: 26 February 2024
Orbit: 485 x 496 km, 53.2° (Epoch: 11 April)

Event Time Altitude Azimuth Distance (km) Brightness Sun altitude
Rises 19:27:20 0° 290° (WNW) 2,555 7.1 -18.8°
Reaches altitude 10° 19:29:33 10° 295° (WNW) 1,672 5.7 -19.1°
Maximum altitude 19:33:15 51° 13° (NNE) 613 2.2 -19.7°
Enters shadow 19:33:41 48° 39° (NE) 640 2.2 -19.8°
